Elmendorf AFB, AK

12:06 PM AKDT on March 30, 2017 (GMT -0800)
Elmendorf Air Force Base

Weather History for PAED - September, 2013

Change the Weather History Date:

Wednesday, September 25, 2013

  Actual Average Record
Temperature  
Mean Temperature 43 °F -  
Max Temperature 48 °F 50 °F 60 °F (1966)
Min Temperature 38 °F 37 °F 20 °F (1992)
Degree Days  
Heating Degree Days 22    
Moisture  
Dew Point 42 °F    
Average Humidity 97    
Maximum Humidity 100    
Minimum Humidity 66    
Precipitation  
Precipitation 1.04 in - - ()
Sea Level Pressure  
Sea Level Pressure 29.54 in    
Wind  
Wind Speed 10 mph (NE)    
Max Wind Speed 21 mph    
Max Gust Speed 22 mph    
Visibility 9 miles    
Events Rain    
Averages and records for this station are not official NWS values.
T = Trace of Precipitation, MM = Missing Value Source: NWS Daily Summary

Daily Weather History Graph

Daily Weather History Graph

Search for Another Location

Airport or City:

Trip Planner

Search our weather history database for the weather conditions in past years. The results will help you decide how hot, cold, wet, or windy it might be!

Date:

Astronomy

Sep. 25, 2013 Rise Set
Actual Time 7:51 AM AKDT 7:48 PM AKDT
Civil Twilight 7:08 AM AKDT 8:31 PM AKDT
Nautical Twilight 6:16 AM AKDT 9:22 PM AKDT
Astronomical Twilight 5:20 AM AKDT 10:18 PM AKDT
Moon 10:31 PM AKDT (9/25) 3:38 PM AKDT (9/25)
Length of Visible Light 13h 22m
Length of Day
11h 56m
Waning Gibbous, 62% of the Moon is Illuminated
Sep 25
Waning Gibbous
Sep 26
Last Quarter
Oct 4
New
Oct 11
First Quarter
Oct 18
Full

Hourly Weather History & Observations

Time (AKDT) Temp. Windchill Dew Point Humidity Pressure Visibility Wind Dir Wind Speed Gust Speed Precip Events Conditions
12:08 AM 42.8 °F - 32.0 °F 66% 29.81 in 10.0 mi Calm Calm - N/A   Light Drizzle
12:58 AM 40.5 °F 36.5 °F 36.5 °F 86% 29.79 in 10.0 mi ESE 5.8 mph - 0.01 in Rain Light Rain
1:58 AM 38.8 °F 30.8 °F 36.7 °F 92% 29.75 in 8.0 mi NNE 13.8 mph - 0.13 in Rain Rain
2:58 AM 38.5 °F 31.6 °F 37.4 °F 96% 29.70 in 10.0 mi NE 10.4 mph - 0.07 in Rain Light Rain
3:58 AM 39.7 °F 32.3 °F 38.8 °F 97% 29.66 in 8.0 mi NNE 12.7 mph - 0.12 in Rain Rain
4:23 AM 39.2 °F 35.9 °F 39.2 °F 100% 29.65 in 6.0 mi NE 4.6 mph - N/A Rain Rain
4:38 AM 39.2 °F 35.9 °F 39.2 °F 100% 29.62 in 9.0 mi East 4.6 mph - N/A Rain Light Rain
4:48 AM 39.2 °F 35.9 °F 39.2 °F 100% 29.61 in 10.0 mi East 4.6 mph - N/A Rain Light Rain
4:58 AM 39.9 °F 33.4 °F 39.7 °F 99% 29.58 in 10.0 mi NE 10.4 mph - 0.07 in Rain Light Rain
5:08 AM 41.0 °F 32.5 °F 39.2 °F 93% 29.57 in 10.0 mi NE 17.3 mph - N/A Rain Light Rain
5:28 AM 41.0 °F 33.5 °F 39.2 °F 93% 29.56 in 10.0 mi NNE 13.8 mph - N/A Rain Light Rain
5:33 AM 41.0 °F 33.9 °F 39.2 °F 93% 29.56 in 10.0 mi NNE 12.7 mph - N/A Rain Light Rain
5:38 AM 41.0 °F 32.8 °F 39.2 °F 93% 29.55 in 10.0 mi NNE 16.1 mph - N/A Rain Light Rain
5:58 AM 40.5 °F 30.9 °F 40.1 °F 99% 29.52 in 10.0 mi NNE 20.7 mph - 0.03 in Rain Light Rain
6:08 AM 41.0 °F 32.2 °F 41.0 °F 100% 29.52 in 9.0 mi NNE 18.4 mph - N/A Rain Light Rain
6:48 AM 41.0 °F 33.5 °F 41.0 °F 100% 29.51 in 7.0 mi North 13.8 mph - N/A Rain Rain
6:58 AM 41.0 °F 34.3 °F 41.0 °F 100% 29.49 in 8.0 mi North 11.5 mph - 0.08 in Rain Rain
7:38 AM 41.0 °F 37.1 °F 39.2 °F 93% 29.49 in 6.0 mi Variable 5.8 mph - N/A Rain Rain
7:58 AM 40.1 °F 35.3 °F 39.9 °F 99% 29.47 in 7.0 mi Variable 6.9 mph - 0.19 in Rain Rain
8:33 AM 39.2 °F 35.0 °F 39.2 °F 100% 29.51 in 2.5 mi North 5.8 mph - N/A Rain Rain
8:48 AM 39.2 °F - 39.2 °F 100% 29.52 in 3.0 mi Calm Calm - N/A Rain Light Rain
8:53 AM 39.2 °F 35.9 °F 39.2 °F 100% 29.53 in 2.5 mi East 4.6 mph - N/A Rain Rain
8:58 AM 39.9 °F 34.5 °F 39.7 °F 99% 29.51 in 2.5 mi North 8.1 mph - 0.18 in Rain Rain
9:03 AM 39.2 °F 32.0 °F 39.2 °F 100% 29.51 in 3.0 mi NE 11.5 mph - N/A Rain Heavy Rain
9:18 AM 39.2 °F 32.5 °F 39.2 °F 100% 29.49 in 4.0 mi NNE 10.4 mph - N/A Rain Light Rain
9:33 AM 39.2 °F 30.2 °F 39.2 °F 100% 29.48 in 6.0 mi NNE 17.3 mph - N/A Rain Rain
9:58 AM 39.7 °F 31.5 °F 39.6 °F 99% 29.45 in 10.0 mi NNE 15.0 mph - 0.08 in Rain Light Rain
10:23 AM 41.0 °F 33.1 °F 41.0 °F 100% 29.47 in 10.0 mi NNE 15.0 mph - N/A Rain Light Rain
10:33 AM 41.0 °F 33.1 °F 41.0 °F 100% 29.46 in 10.0 mi NNE 15.0 mph - N/A Rain Light Rain
10:48 AM 41.0 °F 32.8 °F 41.0 °F 100% 29.46 in 10.0 mi NNE 16.1 mph - N/A Rain Light Rain
10:53 AM 41.0 °F 33.1 °F 41.0 °F 100% 29.47 in 10.0 mi NNE 15.0 mph - N/A Rain Light Rain
10:58 AM 41.0 °F 32.8 °F 41.0 °F 100% 29.45 in 10.0 mi NNE 16.1 mph 21.9 mph 0.01 in Rain Light Rain
11:03 AM 41.0 °F 33.1 °F 41.0 °F 100% 29.47 in 10.0 mi North 15.0 mph 21.9 mph N/A   Light Drizzle
11:18 AM 41.0 °F 33.9 °F 41.0 °F 100% 29.48 in 10.0 mi North 12.7 mph - N/A   Overcast
11:24 AM 41.0 °F 34.3 °F 41.0 °F 100% 29.48 in 10.0 mi North 11.5 mph - N/A   Light Drizzle
11:40 AM 41.0 °F 33.5 °F 41.0 °F 100% 29.48 in 10.0 mi NNE 13.8 mph - N/A   Overcast
11:47 AM 42.8 °F 36.2 °F 41.0 °F 93% 29.48 in 10.0 mi NNE 12.7 mph - N/A   Light Drizzle
11:58 AM 42.1 °F 34.9 °F 41.9 °F 99% 29.46 in 10.0 mi NNE 13.8 mph - 0.00 in   Light Drizzle
11:59 AM 42.8 °F 36.2 °F 42.8 °F 100% 29.47 in 10.0 mi NNE 12.7 mph - N/A   Overcast
12:06 PM 42.8 °F 35.4 °F 42.8 °F 100% 29.48 in 10.0 mi NNE 15.0 mph - N/A   Light Drizzle
12:21 PM 42.8 °F 35.8 °F 42.8 °F 100% 29.48 in 10.0 mi North 13.8 mph - N/A   Mostly Cloudy
12:24 PM 42.8 °F 35.8 °F 42.8 °F 100% 29.48 in 10.0 mi North 13.8 mph - N/A Rain Light Rain
12:40 PM 42.8 °F 35.8 °F 42.8 °F 100% 29.49 in 10.0 mi NNE 13.8 mph - N/A   Mostly Cloudy
12:58 PM 43.0 °F 36.8 °F 42.8 °F 99% 29.48 in 10.0 mi NNE 11.5 mph - 0.00 in   Mostly Cloudy
1:40 PM 44.6 °F 40.2 °F 42.8 °F 93% 29.52 in 10.0 mi North 8.1 mph - N/A   Overcast
1:58 PM 44.1 °F - 43.9 °F 99% 29.51 in 10.0 mi Calm Calm - 0.00 in   Light Drizzle
2:58 PM 44.2 °F - 43.7 °F 98% 29.52 in 7.0 mi East 2.3 mph - 0.01 in Rain Light Rain
3:13 PM 44.6 °F 40.7 °F 44.6 °F 100% 29.53 in 10.0 mi East 6.9 mph - N/A   Overcast
3:53 PM 46.4 °F 42.4 °F 46.4 °F 100% 29.53 in 10.0 mi East 8.1 mph - N/A   Mostly Cloudy
3:58 PM 46.2 °F 41.2 °F 45.5 °F 97% 29.52 in 10.0 mi East 10.4 mph - 0.00 in   Overcast
4:03 PM 46.4 °F 41.1 °F 46.4 °F 100% 29.53 in 10.0 mi East 11.5 mph - N/A   Overcast
4:13 PM 46.4 °F 41.9 °F 44.6 °F 93% 29.53 in 10.0 mi East 9.2 mph - N/A   Overcast
4:58 PM 47.5 °F - 45.3 °F 92% 29.53 in 10.0 mi ENE 6.9 mph - N/A   Overcast
5:31 PM 48.2 °F - 44.6 °F 87% 29.55 in 10.0 mi ENE 5.8 mph - N/A   Light Drizzle
5:58 PM 47.7 °F - 44.6 °F 89% 29.54 in 10.0 mi East 8.1 mph - 0.00 in   Light Drizzle
6:58 PM 47.8 °F - 44.1 °F 87% 29.54 in 10.0 mi NE 10.4 mph - 0.01 in Rain Light Rain
7:58 PM 46.8 °F - 44.6 °F 92% 29.54 in 10.0 mi NNE 10.4 mph - 0.00 in Rain Light Rain
8:27 PM 46.4 °F 41.5 °F 44.6 °F 93% 29.55 in 10.0 mi NNE 10.4 mph - N/A   Overcast
8:37 PM 46.4 °F 41.5 °F 44.6 °F 93% 29.55 in 10.0 mi NNE 10.4 mph - N/A Rain Light Rain
8:58 PM 46.4 °F 40.7 °F 45.1 °F 95% 29.54 in 10.0 mi NE 12.7 mph - 0.01 in   Light Drizzle
9:58 PM 46.6 °F - 45.0 °F 94% 29.55 in 10.0 mi NNE 10.4 mph - 0.00 in   Overcast
9:59 PM 46.4 °F 41.5 °F 44.6 °F 93% 29.56 in 10.0 mi NNE 10.4 mph - N/A Rain Light Rain
10:47 PM 46.4 °F 41.5 °F 46.4 °F 100% 29.57 in 10.0 mi NE 10.4 mph - N/A Rain Light Rain
10:58 PM 45.7 °F 40.2 °F 45.3 °F 99% 29.56 in 10.0 mi NE 11.5 mph - 0.02 in Rain Light Rain
11:58 PM 45.3 °F 41.1 °F 45.1 °F 99% 29.57 in 10.0 mi NE 8.1 mph - 0.02 in Rain Light Rain